Simultaneous Nadir Overpasses (SNOs) Predictions

Prediction of SNOs between NOAA-20 and NOAA-19 Satellite Orbit:

Table of predicted SNOs for the next 14.0 days since TLE Epoch: 2/10/2024
Index Date (NOAA-20) Time (NOAA-20) Lat,Lon (NOAA-20) SZA (NOAA-20 ) Date (NOAA-19) Time (NOAA-19) Lat,Lon (NOAA-19) SZA (NOAA-19 ) Distance(km) Time Diff (sec)
1 02/12/2024 10:53:55 -73.50,-173.23 92.39 02/12/2024 10:52:45 -73.48,-174.99 92.26 55.71 70
2 02/12/2024 11:44:48 73.84, -6.72 87.99 02/12/2024 11:43:35 73.87, -6.78 88.04 3.22 73
3 02/12/2024 12:35:33 -73.90, 160.45 91.96 02/12/2024 12:34:35 -73.89, 160.53 91.96 2.75 58
4 02/12/2024 13:26:19 73.90, -32.22 88.03 02/12/2024 13:25:33 73.89, -32.22 88.03 1.22 46
5 02/12/2024 14:17:03 -73.91, 135.07 91.98 02/12/2024 14:16:33 -73.91, 135.08 91.97 0.57 30
6 02/12/2024 15:07:49 73.90, -57.61 88.01 02/12/2024 15:07:31 73.91, -57.67 88.02 1.86 18
7 02/12/2024 15:58:33 -73.91, 109.68 92.00 02/12/2024 15:58:31 -73.93, 109.64 91.98 2.28 2
8 02/12/2024 16:49:20 73.95, -83.11 88.05 02/12/2024 16:49:29 73.92, -83.11 88.01 3.29 9
9 02/12/2024 17:40:04 -73.96, 84.18 91.96 02/12/2024 17:40:29 -73.95, 84.20 91.99 2.05 25
10 02/12/2024 18:30:50 73.96,-108.50 88.03 02/12/2024 18:31:27 73.94,-108.55 88.01 2.25 37
11 02/12/2024 19:21:34 -73.97, 58.80 91.98 02/12/2024 19:22:27 -73.96, 58.75 91.99 1.31 53
12 02/12/2024 20:12:20 73.96,-133.88 88.01 02/12/2024 20:13:25 73.96,-133.99 88.00 3.35 65
13 02/12/2024 21:03:09 -74.22, 32.80 91.72 02/12/2024 21:04:21 -74.18, 33.82 91.85 31.10 72



Historial Predications of SNOs between NOAA-20 and NOAA-19
